| time (UTC) | temp F | wind direction | speed MPH | gust MPH | rain 1hr in | rain 24hr in | rain mn in | humidity % | barometer mb |
| 20260509194523 | 45 | 52 | 13.0 | 22.0 | 0.00 | 0.03 | 0.03 | 95 | 1022.1 |
| 20260509193022 | 45 | 38 | 10.0 | 20.0 | 0.01 | 0.03 | 0.03 | 95 | 1022.0 |
| 20260509191510 | 45 | 25 | 11.0 | 18.0 | 0.01 | 0.03 | 0.03 | 95 | 1022.0 |
| 20260509190008 | 45 | 59 | 11.0 | 17.0 | 0.01 | 0.03 | 0.03 | 95 | 1021.9 |
| 20260509184507 | 46 | 28 | 13.0 | 19.0 | 0.01 | 0.03 | 0.03 | 94 | 1021.9 |
| 20260509183009 | 46 | 27 | 12.0 | 17.0 | 0.00 | 0.02 | 0.02 | 95 | 1021.8 |
| 20260509181502 | 46 | 21 | 9.0 | 17.0 | 0.00 | 0.02 | 0.02 | 94 | 1021.6 |
| 20260509180116 | 46 | 23 | 10.0 | 18.0 | 0.00 | 0.02 | 0.02 | 94 | 1021.5 |
| 20260509174557 | 47 | 32 | 12.0 | 19.0 | 0.00 | 0.02 | 0.02 | 94 | 1021.3 |
| 20260509173105 | 47 | 25 | 12.0 | 20.0 | 0.01 | 0.02 | 0.02 | 94 | 1021.1 |
| 20260509171551 | 48 | 34 | 11.0 | 21.0 | 0.01 | 0.02 | 0.02 | 94 | 1021.0 |
| 20260509170049 | 49 | 25 | 11.0 | 16.0 | 0.01 | 0.02 | 0.02 | 94 | 1020.8 |
| 20260509164546 | 50 | 19 | 10.0 | 16.0 | 0.01 | 0.02 | 0.02 | 93 | 1020.8 |
| 20260509163044 | 50 | 26 | 10.0 | 17.0 | 0.00 | 0.02 | 0.02 | 92 | 1020.6 |
| 20260509161553 | 51 | 23 | 9.0 | 15.0 | 0.00 | 0.02 | 0.02 | 92 | 1020.5 |
| 20260509160042 | 51 | 53 | 10.0 | 14.0 | 0.00 | 0.02 | 0.02 | 91 | 1020.4 |
| 20260509154546 | 51 | 31 | 9.0 | 15.0 | 0.00 | 0.02 | 0.02 | 91 | 1020.4 |
| 20260509153053 | 51 | 28 | 6.0 | 14.0 | 0.00 | 0.02 | 0.02 | 91 | 1020.4 |
| 20260509151538 | 51 | 10 | 9.0 | 14.0 | 0.01 | 0.02 | 0.02 | 92 | 1020.3 |
| 20260509150038 | 51 | 30 | 6.0 | 13.0 | 0.02 | 0.02 | 0.02 | 93 | 1020.4 |
| 20260509144543 | 51 | 34 | 7.0 | 12.0 | 0.02 | 0.02 | 0.02 | 92 | 1020.3 |
| 20260509143137 | 51 | 25 | 8.0 | 13.0 | 0.02 | 0.02 | 0.02 | 92 | 1020.3 |
| 20260509141540 | 51 | 34 | 9.0 | 13.0 | 0.01 | 0.01 | 0.01 | 91 | 1020.1 |
| 20260509140047 | 52 | 19 | 7.0 | 12.0 | 0.00 | 0.01 | 0.00 | 89 | 1020.3 |
| 20260509134535 | 53 | 51 | 8.0 | 12.0 | 0.00 | 0.01 | 0.00 | 87 | 1020.4 |
| 20260509133038 | 53 | 15 | 5.0 | 10.0 | 0.00 | 0.01 | 0.00 | 87 | 1020.4 |
| 20260509131534 | 54 | 26 | 7.0 | 11.0 | 0.00 | 0.01 | 0.00 | 87 | 1020.4 |
| 20260509130034 | 53 | 32 | 6.0 | 11.0 | 0.00 | 0.01 | 0.00 | 87 | 1020.3 |
| 20260509124533 | 53 | 21 | 5.0 | 10.0 | 0.00 | 0.01 | 0.00 | 87 | 1020.4 |
| 20260509123032 | 54 | 5 | 5.0 | 11.0 | 0.00 | 0.01 | 0.00 | 88 | 1020.4 |
| 20260509121548 | 53 | 34 | 6.0 | 11.0 | 0.00 | 0.01 | 0.00 | 89 | 1020.3 |
| 20260509120046 | 53 | 42 | 7.0 | 11.0 | 0.00 | 0.01 | 0.00 | 89 | 1020.3 |
| 20260509114545 | 53 | 46 | 8.0 | 11.0 | 0.00 | 0.01 | 0.00 | 89 | 1020.3 |
| 20260509113045 | 53 | 47 | 7.0 | 12.0 | 0.00 | 0.01 | 0.00 | 89 | 1020.3 |
| 20260509111544 | 53 | 49 | 8.0 | 11.0 | 0.00 | 0.01 | 0.00 | 89 | 1020.4 |
| 20260509110044 | 53 | 15 | 6.0 | 10.0 | 0.00 | 0.01 | 0.00 | 89 | 1020.5 |
| 20260509104544 | 53 | 32 | 5.0 | 9.0 | 0.00 | 0.01 | 0.00 | 89 | 1020.6 |
| 20260509103050 | 54 | 75 | 5.0 | 9.0 | 0.00 | 0.01 | 0.00 | 89 | 1020.5 |
| 20260509101541 | 54 | 52 | 4.0 | 9.0 | 0.00 | 0.01 | 0.00 | 89 | 1020.5 |
| 20260509100039 | 54 | 62 | 7.0 | 11.0 | 0.00 | 0.01 | 0.00 | 90 | 1020.5 |
| 20260509094547 | 54 | 46 | 6.0 | 11.0 | 0.00 | 0.01 | 0.00 | 91 | 1020.3 |
| 20260509093039 | 54 | 58 | 6.0 | 9.0 | 0.00 | 0.01 | 0.00 | 90 | 1020.4 |
| 20260509091545 | 54 | 35 | 5.0 | 9.0 | 0.00 | 0.01 | 0.00 | 90 | 1020.3 |
| 20260509090039 | 54 | 30 | 3.0 | 5.0 | 0.00 | 0.01 | 0.00 | 91 | 1020.2 |
| 20260509084534 | 54 | 48 | 3.0 | 8.0 | 0.00 | 0.01 | 0.00 | 91 | 1020.2 |
| 20260509083031 | 54 | 48 | 3.0 | 7.0 | 0.00 | 0.01 | 0.00 | 90 | 1020.1 |
| 20260509081530 | 54 | 28 | 3.0 | 6.0 | 0.00 | 0.01 | 0.00 | 91 | 1019.9 |
| 20260509080027 | 53 | 38 | 4.0 | 7.0 | 0.00 | 0.01 | 0.00 | 92 | 1019.9 |
| 20260509074525 | 52 | 45 | 7.0 | 10.0 | 0.00 | 0.01 | 0.00 | 92 | 1019.9 |
| 20260509073033 | 52 | 38 | 7.0 | 10.0 | 0.00 | 0.01 | 0.00 | 93 | 1020.0 |
| 20260509071520 | 52 | 48 | 7.0 | 9.0 | 0.00 | 0.01 | 0.00 | 94 | 1020.0 |
| 20260509070020 | 51 | 68 | 5.0 | 8.0 | 0.00 | 0.01 | 0.00 | 94 | 1019.9 |
| 20260509064517 | 51 | 65 | 3.0 | 6.0 | 0.00 | 0.01 | 0.00 | 95 | 1019.9 |
| 20260509063026 | 50 | 48 | 3.0 | 6.0 | 0.00 | 0.01 | 0.00 | 95 | 1020.0 |
| 20260509061511 | 50 | 33 | 4.0 | 6.0 | 0.00 | 0.01 | 0.00 | 94 | 1019.9 |
| 20260509060015 | 50 | 37 | 3.0 | 5.0 | 0.00 | 0.01 | 0.00 | 94 | 1019.8 |
| 20260509054509 | 50 | 42 | 2.0 | 4.0 | 0.00 | 0.01 | 0.00 | 95 | 1019.9 |
| 20260509053006 | 49 | 53 | 3.0 | 6.0 | 0.00 | 0.01 | 0.00 | 95 | 1019.7 |
| 20260509051511 | 49 | 64 | 4.0 | 9.0 | 0.00 | 0.01 | 0.00 | 95 | 1019.7 |
| 20260509050004 | 49 | 75 | 2.0 | 8.0 | 0.00 | 0.01 | 0.00 | 95 | 1019.7 |
| 20260509044608 | 48 | 84 | 6.0 | 10.0 | 0.00 | 0.01 | 0.00 | 95 | 1019.7 |
| 20260509043101 | 47 | 77 | 1.0 | 6.0 | 0.00 | 0.01 | 0.00 | 95 | 1019.6 |
| 20260509041557 | 47 | 76 | 3.0 | 5.0 | 0.00 | 0.01 | 0.00 | 95 | 1019.7 |
| 20260509040108 | 47 | 146 | 0.0 | 3.0 | 0.00 | 0.01 | 0.00 | 95 | 1019.7 |
| 20260509034556 | 47 | 160 | 0.0 | 2.0 | 0.00 | 0.01 | 0.00 | 95 | 1019.7 |
| 20260509033121 | 47 | 160 | 0.0 | 0.0 | 0.00 | 0.01 | 0.00 | 95 | 1019.7 |
| 20260509031553 | 47 | 160 | 0.0 | 2.0 | 0.00 | 0.01 | 0.00 | 95 | 1019.7 |
| 20260509030053 | 47 | 160 | 0.0 | 0.0 | 0.00 | 0.01 | 0.00 | 95 | 1019.7 |
| 20260509024603 | 47 | 160 | 0.0 | 1.0 | 0.00 | 0.01 | 0.00 | 95 | 1019.6 |
| 20260509023052 | 47 | 160 | 0.0 | 5.0 | 0.00 | 0.01 | 0.00 | 95 | 1019.5 |
| 20260509021549 | 47 | 194 | 0.0 | 3.0 | 0.00 | 0.01 | 0.00 | 94 | 1019.5 |
| 20260509014548 | 47 | 221 | 0.0 | 2.0 | 0.00 | 0.01 | 0.00 | 94 | 1019.6 |
| 20260509013047 | 47 | 221 | 0.0 | 2.0 | 0.00 | 0.01 | 0.00 | 94 | 1019.5 |
| 20260509011549 | 48 | 234 | 1.0 | 2.0 | 0.00 | 0.01 | 0.00 | 94 | 1019.6 |
| 20260509010043 | 48 | 234 | 0.0 | 0.0 | 0.00 | 0.01 | 0.00 | 94 | 1019.7 |
| 20260509004543 | 48 | 234 | 0.0 | 0.0 | 0.00 | 0.01 | 0.00 | 94 | 1019.6 |
| 20260509003042 | 48 | 234 | 0.0 | 0.0 | 0.00 | 0.01 | 0.00 | 93 | 1019.7 |
| 20260509001539 | 48 | 234 | 0.0 | 2.0 | 0.00 | 0.01 | 0.00 | 93 | 1019.5 |
| 20260509000038 | 48 | 239 | 0.0 | 3.0 | 0.00 | 0.01 | 0.01 | 93 | 1019.5 |
| 20260508234537 | 49 | 223 | 2.0 | 6.0 | 0.00 | 0.01 | 0.01 | 93 | 1019.4 |
| 20260508233038 | 49 | 113 | 0.0 | 9.0 | 0.00 | 0.01 | 0.01 | 93 | 1019.3 |
| 20260508231536 | 49 | 130 | 2.0 | 10.0 | 0.00 | 0.01 | 0.01 | 93 | 1019.4 |
| 20260508230035 | 49 | 172 | 4.0 | 13.0 | 0.00 | 0.01 | 0.01 | 93 | 1019.1 |
| 20260508224547 | 48 | 166 | 7.0 | 12.0 | 0.00 | 0.01 | 0.01 | 93 | 1019.1 |
| 20260508223035 | 48 | 140 | 1.0 | 6.0 | 0.00 | 0.01 | 0.01 | 93 | 1019.3 |
| 20260508221534 | 48 | 25 | 1.0 | 6.0 | 0.00 | 0.01 | 0.01 | 93 | 1019.3 |
| 20260508220033 | 48 | 108 | 2.0 | 6.0 | 0.00 | 0.01 | 0.01 | 92 | 1019.4 |
| 20260508214537 | 49 | 115 | 2.0 | 10.0 | 0.00 | 0.01 | 0.01 | 92 | 1019.4 |
| 20260508213032 | 49 | 121 | 2.0 | 10.0 | 0.00 | 0.01 | 0.01 | 92 | 1019.2 |
| 20260508211532 | 50 | 146 | 5.0 | 11.0 | 0.00 | 0.01 | 0.01 | 91 | 1019.2 |
| 20260508210035 | 50 | 188 | 3.0 | 12.0 | 0.00 | 0.01 | 0.01 | 91 | 1019.2 |
| 20260508204536 | 50 | 136 | 5.0 | 11.0 | 0.00 | 0.01 | 0.01 | 90 | 1019.2 |
| 20260508203033 | 50 | 152 | 0.0 | 5.0 | 0.00 | 0.01 | 0.01 | 90 | 1019.1 |
| 20260508201526 | 51 | 122 | 2.0 | 6.0 | 0.00 | 0.01 | 0.01 | 88 | 1019.0 |
| 20260508200026 | 51 | 312 | 2.0 | 10.0 | 0.00 | 0.01 | 0.01 | 85 | 1018.9 |